Regional Weather Roundup
Issued by NWS Mt. Holly, NJ

Home | Current Version | Previous Version | Text Only | Print | Product List | Glossary On
Versions: 1 2 3 4 5 6 7 8 9 10 11 12 13 14 15 16 17 18 19 20 21 22 23 24 25 26 27 28
000
ASUS41 KPHI 250910
RWRPHI

REGIONAL WEATHER ROUNDUP
NATIONAL WEATHER SERVICE MOUNT HOLLY NJ
500 AM EDT SAT OCT 25 2014

NOTE:  "FAIR" INDICATES FEW OR NO CLOUDS BELOW 12,000 FEET WITH NO
SIGNIFICANT WEATHER AND/OR OBSTRUCTIONS TO VISIBILITY.

 * = STATION DOES NOT REPORT PRECIPITATION (E.G. RAIN, SNOW, ETC.)
        OR FOG.

NJZ015>026-251000-
SOUTHERN NEW JERSEY

CITY           SKY/WX    TMP DP  RH WIND       PRES   REMARKS
POMONA         CLEAR     43  38  82 NW7       29.90S
RIO GRANDE*    CLEAR     55  41  58 NW7       29.92R
MILLVILLE      CLEAR     41  38  89 W6        29.91S
WRIGHTSTOWN    CLEAR     48  36  63 W2        29.88R HAZE
MOUNT HOLLY    CLEAR     40  37  89 CALM      29.90S
TRENTON        CLEAR     48  32  53 CALM      29.89S

$$
NJZ001>014-251000-
NORTHERN NEW JERSEY

CITY           SKY/WX    TMP DP  RH WIND       PRES   REMARKS
SUSSEX         CLEAR     43  34  70 CALM      29.88S
ANDOVER*         N/A     38  35  89 CALM      29.89S
MORRISTOWN     CLEAR     45  37  76 CALM      29.88S
NEWARK         PTCLDY    52  37  56 NW5       29.87R
TETERBORO      PTCLDY    50  36  58 NW3       29.85S
CALDWELL       PTCLDY    47  36  65 CALM      29.88S
SOMERVILLE     CLEAR     40  36  86 CALM      29.88R
ALLAIRE*       CLEAR     46  34  61 W7        29.88R
TOMS RIVER*    CLEAR     43  37  81 CALM      29.90R

$$
PAZ043-044-047-054-055-060>062-066>071-251000-
EASTERN PENNSYLVANIA

CITY           SKY/WX    TMP DP  RH WIND       PRES   REMARKS
PHILADELPHIA   CLEAR     48  36  63 W3        29.92R
NORTH PHILA    CLEAR     48  33  56 W5        29.92R
BLUE BELL      CLEAR     41  37  87 CALM      29.90R
DOYLESTOWN     CLEAR     40  35  83 CALM      29.90R
QUAKERTOWN*    CLEAR     39  34  81 CALM      29.91S
POTTSTOWN      CLEAR     42  35  76 CALM      29.92S
LANCASTER      CLEAR     44  38  79 W6        29.92F
COATESVILLE    CLEAR     45  39  81 NW8       29.92S
READING        CLEAR     44  36  73 CALM      29.91S
ALLENTOWN      CLEAR     43  32  65 CALM      29.90S
MOUNT POCONO   CLEAR     43  32  65 NW10      29.87S
HAZLETON       CLEAR     46  32  57 W6        29.93S
WILKES BARRE   CLEAR     39  32  76 VRB3      29.90F

$$
DEZALL-MDZ008-012-015-019-020-251000-
DELAWARE AND EASTERN MARYLAND

CITY           SKY/WX    TMP DP  RH WIND       PRES   REMARKS
WILMINGTON     CLEAR     48  39  71 SW5       29.92S
DOVER          CLEAR     47  41  77 W8        29.90R
GEORGETOWN     CLEAR     49  40  71 CALM      29.93S
EASTON         CLEAR     51  45  80 CALM      29.97S
PATUXENT       CLEAR     52  41  66 NW8       29.95R
OCEAN CITY     CLEAR     49  40  71 NW9       29.91S
WALLOPS ISLAND CLEAR     51  43  74 NW8       29.93R
CAMBRIDGE      CLEAR     55  43  62 NW5       29.93S
SALISBURY      CLEAR     50  40  68 NW3       29.92S

$$
PAZ001-021-NYZ056-072-MDZ011-DCZ001-251000-
OTHER NEARBY LOCATIONS

CITY           SKY/WX    TMP DP  RH WIND       PRES   REMARKS
HARRISBURG     CLEAR     44  39  82 CALM      29.92S
STATE COLLEGE  PTCLDY    46  37  72 SW5       29.93F
WILLIAMSPORT   PTCLDY    39  33  79 NW3       29.92F
BINGHAMTON     MOCLDY    40  33  76 SW6       29.87F
NEW YORK CITY  PTCLDY    53  36  52 VRB7      29.88S
BALTIMORE      CLEAR     46  38  73 W5        29.94S
WASHINGTON DC  CLEAR     52  38  58 N5        29.96S

$$



USA.gov is the U.S. government's official web portal to all federal, state and local government web resources and services.